Total_Precipitation_Accumulation
0.69 0.67 0.60 0.59 0.45 0.38 0.42 0.44 0.40 0.37 0.29 0.16 0.13 0.14 0.12 0.08 0.11 0.17 0.29 0.37 0.52 0.53 0.47 0.32 0.21 0.20 0.22 0.22 0.24 0.31 0.39 0.43 0.47 0.46 0.37 0.29 0.22 0.16 0.10 0.08 0.08 0.11 0.11
0.74 0.77 0.70 0.65 0.59 0.50 0.49 0.60 0.50 0.46 0.43 0.32 0.17 0.13 0.11 0.08 0.07 0.10 0.22 0.43 0.58 0.55 0.60 0.58 0.44 0.33 0.28 0.24 0.26 0.29 0.34 0.37 0.38 0.41 0.36 0.27 0.19 0.14 0.08 0.07 0.08 0.11 0.12
0.71 0.71 0.70 0.65 0.62 0.62 0.59 0.63 0.59 0.49 0.38 0.30 0.20 0.12 0.08 0.07 0.07 0.05 0.07 0.13 0.23 0.33 0.44 0.51 0.54 0.45 0.36 0.29 0.29 0.26 0.26 0.28 0.31 0.36 0.39 0.31 0.21 0.16 0.12 0.11 0.10 0.10 0.09
0.78 0.76 0.77 0.75 0.77 0.76 0.69 0.67 0.68 0.62 0.45 0.35 0.29 0.20 0.12 0.09 0.06 0.05 0.04 0.04 0.06 0.12 0.25 0.28 0.35 0.38 0.41 0.41 0.40 0.30 0.22 0.19 0.20 0.27 0.36 0.35 0.26 0.20 0.18 0.18 0.15 0.12 0.09
0.85 0.94 0.93 0.97 0.93 0.90 0.84 0.75 0.69 0.62 0.54 0.45 0.34 0.26 0.18 0.13 0.10 0.05 0.05 0.05 0.06 0.07 0.12 0.11 0.14 0.16 0.20 0.25 0.32 0.33 0.23 0.17 0.14 0.17 0.22 0.26 0.25 0.21 0.22 0.22 0.15 0.13 0.11
1.16 1.27 1.32 1.25 1.23 1.18 1.11 1.02 1.01 0.86 0.67 0.60 0.49 0.34 0.22 0.18 0.15 0.11 0.09 0.07 0.06 0.06 0.07 0.06 0.07 0.07 0.07 0.10 0.15 0.21 0.20 0.19 0.15 0.14 0.16 0.18 0.19 0.17 0.20 0.23 0.20 0.18 0.18
1.54 1.62 1.55 1.60 1.59 1.42 1.37 1.39 1.41 1.30 1.00 0.77 0.76 0.60 0.38 0.23 0.21 0.18 0.15 0.11 0.09 0.09 0.10 0.08 0.05 0.05 0.05 0.04 0.05 0.12 0.19 0.24 0.22 0.17 0.16 0.16 0.15 0.13 0.14 0.18 0.20 0.22 0.25
1.76 1.77 1.85 1.88 1.88 1.85 1.76 1.60 1.61 1.67 1.39 1.04 1.05 1.21 0.86 0.55 0.29 0.21 0.19 0.15 0.13 0.14 0.14 0.13 0.09 0.07 0.04 0.05 0.04 0.05 0.12 0.22 0.26 0.21 0.17 0.16 0.14 0.10 0.09 0.12 0.16 0.19 0.22
1.99 2.00 2.05 2.08 2.03 1.87 1.82 1.88 1.92 2.18 1.91 1.47 1.23 1.35 1.11 0.85 0.60 0.31 0.24 0.25 0.22 0.20 0.20 0.21 0.18 0.15 0.11 0.09 0.09 0.04 0.03 0.07 0.16 0.19 0.19 0.18 0.16 0.12 0.09 0.09 0.12 0.16 0.16
1.91 2.00 2.01 1.99 1.95 1.86 1.89 1.96 1.94 2.20 2.31 1.94 1.58 1.25 0.97 0.85 0.85 0.64 0.39 0.31 0.31 0.24 0.21 0.21 0.19 0.18 0.16 0.13 0.15 0.09 0.05 0.05 0.09 0.16 0.21 0.21 0.18 0.16 0.13 0.11 0.12 0.13 0.13
1.78 1.79 1.80 1.86 1.88 1.90 1.94 2.08 2.14 2.31 2.28 2.21 1.92 1.70 1.50 1.19 0.86 0.81 0.76 0.55 0.44 0.31 0.26 0.26 0.24 0.21 0.20 0.20 0.24 0.22 0.13 0.06 0.07 0.15 0.23 0.26 0.23 0.20 0.20 0.17 0.15 0.14 0.13
1.76 1.68 1.66 1.71 1.81 1.95 1.98 2.04 2.13 2.32 2.39 2.41 2.23 1.93 1.78 1.60 1.33 1.17 0.93 0.78 0.70 0.51 0.39 0.34 0.32 0.29 0.26 0.27 0.33 0.42 0.29 0.14 0.08 0.12 0.19 0.25 0.27 0.26 0.25 0.25 0.23 0.21 0.20
1.47 1.49 1.56 1.64 1.75 1.88 1.93 1.99 2.11 2.11 2.20 2.43 2.40 2.15 1.90 1.67 1.59 1.45 1.29 1.04 0.88 0.62 0.48 0.42 0.39 0.37 0.33 0.36 0.42 0.49 0.33 0.18 0.10 0.08 0.10 0.13 0.18 0.22 0.24 0.23 0.24 0.25 0.26
1.34 1.29 1.32 1.41 1.62 1.81 1.89 1.93 1.91 1.89 1.94 2.10 2.10 2.11 2.04 1.78 1.66 1.49 1.39 1.44 1.24 0.97 0.68 0.47 0.39 0.38 0.36 0.35 0.44 0.51 0.32 0.22 0.15 0.10 0.09 0.10 0.11 0.13 0.18 0.21 0.24 0.25 0.25
1.13 1.07 1.08 1.13 1.23 1.46 1.70 1.83 1.74 1.65 1.63 1.72 1.79 1.88 1.98 1.98 1.88 1.73 1.65 1.58 1.49 1.25 1.01 0.75 0.56 0.43 0.44 0.41 0.49 0.40 0.34 0.32 0.25 0.18 0.14 0.13 0.11 0.12 0.14 0.16 0.18 0.15 0.16
0.95 0.94 0.91 0.93 1.04 1.16 1.37 1.58 1.64 1.59 1.54 1.54 1.65 1.77 1.89 2.00 2.05 1.85 1.76 1.67 1.50 1.34 1.16 0.88 0.69 0.55 0.58 0.52 0.54 0.38 0.37 0.43 0.33 0.26 0.20 0.18 0.16 0.14 0.15 0.16 0.15 0.14 0.11
0.73 0.76 0.90 0.94 0.99 1.05 1.21 1.46 1.61 1.61 1.54 1.52 1.51 1.55 1.67 1.76 1.98 1.95 1.85 1.72 1.57 1.39 1.21 1.05 0.84 0.63 0.65 0.66 0.63 0.50 0.41 0.38 0.31 0.29 0.24 0.21 0.20 0.20 0.19 0.21 0.20 0.18 0.15
0.51 0.61 0.72 0.76 0.79 0.81 0.96 1.22 1.41 1.44 1.39 1.32 1.29 1.35 1.53 1.70 1.91 2.02 1.99 1.86 1.74 1.60 1.43 1.31 1.12 0.88 0.77 0.74 0.76 0.75 0.64 0.56 0.49 0.47 0.39 0.29 0.26 0.27 0.26 0.26 0.26 0.24 0.21
0.55 0.63 0.71 0.76 0.78 0.79 0.79 0.86 0.98 1.10 1.13 1.10 1.09 1.10 1.14 1.29 1.54 1.74 1.82 1.85 1.88 1.82 1.72 1.55 1.33 1.15 0.98 0.84 0.81 0.79 0.73 0.73 0.66 0.64 0.59 0.49 0.42 0.42 0.39 0.34 0.30 0.27 0.25
0.50 0.55 0.58 0.66 0.75 0.77 0.74 0.73 0.75 0.81 0.80 0.84 0.89 0.94 0.97 1.00 1.15 1.30 1.43 1.63 1.83 1.83 1.82 1.73 1.51 1.25 1.08 0.95 0.92 0.91 0.89 0.86 0.81 0.70 0.67 0.59 0.53 0.46 0.41 0.37 0.32 0.29 0.27
0.42 0.47 0.51 0.54 0.61 0.67 0.71 0.72 0.62 0.58 0.61 0.66 0.71 0.72 0.73 0.81 0.89 0.96 1.04 1.32 1.62 1.75 1.72 1.69 1.58 1.38 1.13 1.00 0.90 0.85 0.90 1.01 1.00 0.93 0.88 0.72 0.62 0.53 0.46 0.40 0.36 0.33 0.30
0.39 0.44 0.44 0.45 0.55 0.57 0.67 0.64 0.50 0.48 0.50 0.58 0.67 0.64 0.58 0.58 0.61 0.65 0.73 0.86 1.08 1.29 1.51 1.64 1.61 1.42 1.22 1.07 1.00 0.97 0.96 0.98 1.04 0.97 0.96 0.98 0.86 0.78 0.72 0.64 0.62 0.58 0.46
0.35 0.38 0.39 0.40 0.45 0.57 0.58 0.42 0.39 0.42 0.48 0.54 0.60 0.66 0.60 0.51 0.55 0.56 0.63 0.67 0.66 0.73 0.98 1.25 1.39 1.39 1.42 1.23 1.13 1.05 0.98 1.01 1.01 0.90 0.92 0.98 0.97 0.94 0.89 0.85 0.84 0.77 0.67
0.42 0.42 0.44 0.44 0.44 0.49 0.46 0.33 0.33 0.38 0.45 0.50 0.58 0.67 0.72 0.64 0.63 0.70 0.67 0.69 0.64 0.59 0.74 0.75 0.89 1.17 1.30 1.31 1.22 1.24 1.34 1.25 1.09 0.94 0.81 0.82 0.82 0.83 0.83 0.84 0.85 0.75 0.65
0.42 0.44 0.48 0.48 0.43 0.40 0.39 0.30 0.29 0.37 0.45 0.52 0.54 0.59 0.66 0.63 0.74 0.80 0.77 0.86 0.83 0.73 0.83 0.86 0.88 0.89 0.94 1.02 1.10 1.12 1.18 1.21 1.19 1.07 0.83 0.69 0.66 0.63 0.63 0.63 0.62 0.62 0.61
0.24 0.32 0.34 0.38 0.41 0.38 0.46 0.33 0.32 0.38 0.48 0.59 0.63 0.61 0.73 0.70 0.73 0.72 0.69 0.88 0.91 0.80 0.70 0.74 0.71 0.65 0.60 0.66 0.80 0.91 1.05 1.08 1.03 0.93 0.73 0.58 0.53 0.49 0.51 0.45 0.36 0.35 0.36